Somerville, NJ

4:29 PM EDT on May 26, 2017 (GMT -0400)
Somerset

Weather History for KSMQ - September, 2013

Change the Weather History Date:

Tuesday, September 17, 2013

  Actual Average Record
Temperature  
Mean Temperature 54 °F -  
Max Temperature 68 °F 75 °F 91 °F (1991)
Min Temperature 41 °F 51 °F 37 °F (1950)
Degree Days  
Heating Degree Days 12    
Growing Degree Days 4 (Base 50)    
Moisture  
Dew Point 41 °F    
Average Humidity 64    
Maximum Humidity 93    
Minimum Humidity 35    
Precipitation  
Precipitation 0.01 in - - ()
Sea Level Pressure  
Sea Level Pressure 30.36 in    
Wind  
Wind Speed 4 mph (NNE)    
Max Wind Speed 13 mph    
Max Gust Speed 16 mph    
Visibility 10 miles    
Events      
Averages and records for this station are not official NWS values.
T = Trace of Precipitation, MM = Missing Value Source: NWS Daily Summary

Daily Weather History Graph

Daily Weather History Graph

Search for Another Location

Airport or City:

Trip Planner

Search our weather history database for the weather conditions in past years. The results will help you decide how hot, cold, wet, or windy it might be!

Date:

Astronomy

Sep. 17, 2013 Rise Set
Actual Time 6:41 AM EDT 7:03 PM EDT
Civil Twilight 6:14 AM EDT 7:31 PM EDT
Nautical Twilight 5:41 AM EDT 8:03 PM EDT
Astronomical Twilight 5:08 AM EDT 8:36 PM EDT
Moon 5:49 PM EDT (9/17) 4:32 AM EDT (9/17)
Length of Visible Light 13h 17m
Length of Day
12h 22m
Waxing Gibbous, 96% of the Moon is Illuminated
Sep 17
Waxing Gibbous
Sep 19
Full
Sep 26
Last Quarter
Oct 4
New
Oct 11
First Quarter

Hourly Weather History & Observations

Time (EDT) Temp. Windchill Dew Point Humidity Pressure Visibility Wind Dir Wind Speed Gust Speed Precip Events Conditions
12:53 AM 55.0 °F - 45.0 °F 69% 30.27 in 10.0 mi North 5.8 mph - N/A   Scattered Clouds
1:53 AM 54.0 °F - 43.0 °F 66% 30.28 in 10.0 mi NNW 4.6 mph - N/A   Overcast
2:53 AM 54.0 °F - 44.1 °F 69% 30.30 in 10.0 mi NE 9.2 mph - N/A   Overcast
3:53 AM 50.0 °F - 41.0 °F 71% 30.32 in 10.0 mi NNE 4.6 mph - N/A   Clear
4:53 AM 48.0 °F - 37.9 °F 68% 30.34 in 10.0 mi Calm Calm - N/A   Clear
5:53 AM 43.0 °F 41.3 °F 39.9 °F 89% 30.36 in 10.0 mi NW 3.5 mph - N/A   Clear
6:53 AM 41.0 °F - 39.0 °F 93% 30.38 in 10.0 mi Calm Calm - N/A   Clear
7:53 AM 46.9 °F - 41.0 °F 80% 30.40 in 10.0 mi NNW 3.5 mph - N/A   Clear
8:53 AM 53.1 °F - 37.0 °F 55% 30.41 in 10.0 mi NE 6.9 mph - N/A   Clear
9:53 AM 55.0 °F - 36.0 °F 49% 30.43 in 10.0 mi ENE 8.1 mph - N/A   Clear
10:53 AM 57.0 °F - 35.1 °F 44% 30.43 in 10.0 mi NNE 12.7 mph 16.1 mph N/A   Clear
11:53 AM 60.1 °F - 36.0 °F 41% 30.42 in 10.0 mi East 6.9 mph - N/A   Clear
12:53 PM 62.1 °F - 36.0 °F 38% 30.40 in 10.0 mi North 6.9 mph - N/A   Clear
1:53 PM 64.0 °F - 36.0 °F 35% 30.39 in 10.0 mi Calm Calm - N/A   Clear
2:53 PM 64.9 °F - 37.9 °F 37% 30.37 in 10.0 mi Variable 3.5 mph - N/A   Clear
3:53 PM 66.0 °F - 39.9 °F 38% 30.35 in 10.0 mi Calm Calm - N/A   Clear
4:53 PM 66.0 °F - 39.0 °F 37% 30.34 in 10.0 mi Calm Calm - N/A   Clear
5:53 PM 66.9 °F - 39.0 °F 36% 30.34 in 10.0 mi Calm Calm - N/A   Clear
6:53 PM 55.9 °F - 46.0 °F 69% 30.34 in 10.0 mi Calm Calm - N/A   Clear
7:53 PM 51.1 °F - 46.9 °F 86% 30.34 in 10.0 mi Calm Calm - N/A   Clear
8:53 PM 48.0 °F - 46.0 °F 93% 30.35 in 10.0 mi South 3.5 mph - N/A   Clear
9:53 PM 46.9 °F - 45.0 °F 93% 30.35 in 10.0 mi Calm Calm - N/A   Clear
10:53 PM 46.9 °F - 45.0 °F 93% 30.36 in 10.0 mi Calm Calm - N/A   Clear
11:53 PM 45.0 °F - 43.0 °F 93% 30.35 in 10.0 mi Calm Calm - 0.01 in   Clear